Vorticity
27 53 42 21 17 16 16 17 17 14 15 16 21 27 31 44 46 35 18 23 18 15 14 13 7 5 3 -0 10 18 7 5 -13 47 24 19 -20 -15 -24 21 -2 33 1 12 4 7 18 16 28 -10 7 10 13 3
15 12 17 14 15 15 16 13 13 12 10 10 8 9 9 11 10 41 20 4 9 10 12 12 9 5 8 7 9 12 14 9 19 -8 76 16 -7 -25 5 -9 20 1 30 35 8 -3 6 27 -26 2 30 6 11 12
18 8 7 14 27 7 10 10 13 23 36 37 36 37 24 8 9 6 26 23 7 3 25 11 16 11 8 9 16 18 18 13 5 -1 37 30 41 -27 -16 -16 -24 30 -14 12 28 27 8 -9 15 10 28 1 11 25
9 7 15 40 22 17 37 44 43 36 19 2 23 24 49 33 17 7 40 13 -3 12 10 10 0 5 22 8 10 22 11 9 14 8 26 15 16 17 13 27 1 -9 21 10 5 19 15 32 21 -17 -15 38 26 -4
-1 12 31 14 18 34 46 85 72 60 39 32 33 28 26 15 15 15 38 30 11 14 29 14 6 8 20 15 5 10 6 11 19 10 36 15 8 -4 21 12 41 -5 19 14 -2 16 12 12 19 41 -9 -24 16 21
16 27 25 20 21 30 32 18 26 22 23 28 21 13 15 25 29 18 26 14 25 8 20 12 25 15 9 -0 9 -0 6 -2 11 2 22 19 21 9 29 33 8 5 2 15 21 -9 2 4 14 12 5 -15 8 21
16 37 -5 10 14 31 19 9 35 38 32 20 8 25 32 35 36 28 39 4 6 26 -6 8 21 21 10 2 8 13 8 9 12 -14 46 4 -9 27 2 29 8 -8 -4 0 15 11 1 0 -15 -4 -1 4 -1 3
34 14 24 39 3 15 26 24 16 12 13 17 15 12 18 27 31 20 24 11 4 9 13 6 24 -0 11 16 15 17 12 6 3 1 56 -2 -57 4 17 -5 1 3 7 -3 17 31 17 20 18 5 3 10 24 4
23 40 10 23 16 19 27 20 17 19 24 24 10 17 16 12 19 19 26 6 10 -10 8 14 9 10 10 4 8 2 8 -1 -1 43 24 19 62 8 4 14 8 6 8 15 11 8 11 19 17 20 24 16 14 14
23 2 6 7 11 19 18 10 20 27 26 20 24 37 18 1 12 -0 15 10 3 3 7 11 9 5 2 15 5 12 24 21 21 36 15 -38 -6 31 14 19 27 10 15 14 10 12 7 1 4 7 4 4 10 13
13 5 9 5 12 17 14 15 16 15 11 13 12 13 13 11 9 11 12 5 4 10 13 10 2 7 -9 23 38 12 16 18 28 48 -14 0 -10 13 4 7 9 20 12 9 8 16 14 10 9 3 1 5 8 9
10 12 4 12 10 11 12 8 6 4 5 11 15 8 10 6 6 8 7 12 15 17 5 2 3 0 34 -26 23 14 20 39 54 2 23 -72 39 -4 14 16 -1 8 15 25 17 11 9 8 6 5 6 5 6 7
9 10 8 12 8 8 9 1 7 5 6 5 6 2 3 8 10 16 9 1 4 5 9 8 12 38 24 17 15 19 -6 24 -13 -7 -2 35 3 19 12 12 23 25 11 3 3 9 8 9 7 8 10 11 10 10
17 16 13 12 5 12 14 17 17 20 17 19 20 11 8 4 5 -0 7 3 30 54 52 40 2 2 34 14 10 7 4 27 28 18 7 19 27 8 3 0 9 -3 -3 6 8 6 6 10 12 8 7 8 9 9
9 8 11 11 15 13 5 7 7 7 11 8 -1 4 5 2 -3 19 40 27 -4 1 20 4 -2 -2 20 37 17 8 22 -33 10 7 23 20 20 -8 -7 7 1 4 4 4 6 10 15 13 13 10 18 20 28 23
9 4 4 5 3 3 10 13 9 13 8 2 6 -0 6 1 4 10 20 20 -8 1 14 4 3 14 4 2 -2 -15 21 -10 21 14 25 30 23 19 11 4 3 7 8 9 11 9 15 6 15 15 8 9 12 -0
19 43 48 28 8 -6 5 5 10 5 5 4 6 8 6 12 8 3 4 33 -6 -3 30 6 6 8 15 19 5 -15 17 3 4 13 17 9 25 21 24 21 16 14 19 1 19 4 6 9 3 15 12 4 0 5
-1 5 0 -3 1 10 13 22 25 24 10 3 1 7 9 8 6 6 10 34 11 -9 -6 34 12 11 -4 9 39 31 3 7 17 12 6 15 -0 10 24 22 20 15 13 14 14 6 2 9 1 -1 3 7 9 10
8 6 7 14 17 18 16 13 15 14 27 35 25 24 25 9 5 13 41 26 3 10 15 18 24 20 22 -1 -3 3 -1 -1 4 6 6 16 -2 32 11 10 8 8 7 7 9 9 9 8 8 8 9 10 7 2
14 13 7 8 13 10 13 17 22 17 19 19 19 17 24 29 27 29 8 11 14 10 7 14 21 13 19 10 -8 13 7 -0 7 6 11 4 -1 6 21 -2 3 10 9 7 6 6 7 7 8 6 4 1 6 7
23 22 10 5 4 8 4 12 11 5 6 5 8 7 20 21 19 -5 -3 -2 -0 -5 3 8 13 17 14 14 14 -11 5 11 9 10 3 -0 3 6 11 10 5 3 6 8 8 7 7 8 4 5 5 4 4 4
1 2 5 7 12 12 16 24 33 33 4 9 6 12 9 14 13 7 5 -1 -1 5 7 7 6 9 7 2 3 12 19 31 45 29 13 26 20 17 20 16 7 7 9 10 8 5 3 4 5 5 6 6 5 5
7 4 5 7 6 8 5 2 6 7 7 15 30 34 22 8 3 4 5 9 19 16 17 14 19 24 15 8 11 7 7 8 8 6 6 7 7 7 6 5 4 5 6 6 6 6 5 4 5 6 7 8 8 9
15 12 9 14 15 14 9 7 9 8 7 7 4 8 5 9 13 17 22 21 21 17 15 17 14 14 12 12 12 11 9 7 9 9 9 9 8 8 8 8 7 7 7 6 6 6 6 7 8 9 9 10 10 8
4 13 8 4 8 6 6 7 8 11 9 10 7 8 8 7 8 10 12 12 10 9 7 6 7 8 7 5 4 5 5 6 6 6 5 6 7 7 7 7 8 7 7 7 7 8 8 9 10 10 10 8 9 9
4 4 1 7 2 6 4 6 9 7 9 8 8 8 12 12 12 9 8 6 3 5 7 9 11 13 14 14 13 12 10 11 13 14 14 13 12 11 11 11 11 11 11 11 10 10 10 10 9 7 7 7 10 13
4 6 3 3 4 5 10 7 6 10 12 12 12 12 10 11 11 12 11 11 11 11 11 9 8 6 5 4 6 6 6 9 11 12 12 11 10 10 10 10 10 9 9 9 8 9 8 5 4 9 13 15 18 15
2 2 3 6 13 12 11 12 15 6 -4 0 1 2 2 6 2 7 7 9 12 11 8 10 10 9 10 10 9 9 10 10 11 11 12 10 10 10 9 9 9 9 10 9 6 3 5 12 16 18 18 14 17 21
7 8 17 14 15 6 -4 -2 2 7 3 2 2 6 4 7 3 6 6 9 12 16 19 21 19 19 16 17 16 16 16 16 15 12 12 11 11 10 10 10 9 6 4 7 16 21 18 17 15 14 16 20 24 20
6 12 6 4 -8 3 6 12 5 5 8 7 5 7 10 14 18 24 28 29 29 26 24 22 22 22 21 19 19 20 18 18 16 15 12 11 10 10 9 13 19 21 19 14 12 13 13 15 18 24 24 23 13 6
4 3 4 10 11 11 9 10 11 10 13 16 21 26 28 26 25 21 19 17 15 15 15 14 13 12 13 13 14 14 15 15 15 16 17 18 17 17 15 11 9 10 12 13 17 20 24 22 21 24 13 6 8 16
10 11 13 11 8 11 11 18 23 22 23 22 21 20 18 18 14 14 19 24 24 24 23 24 24 23 23 22 20 18 17 14 14 12 11 10 9 10 13 16 18 20 23 23 18 16 24 24 11 6 6 13 15 11
14 13 16 11 19 25 20 18 15 16 20 22 20 13 16 12 24 28 27 25 23 23 25 24 22 20 18 17 16 16 15 15 15 15 15 15 16 16 17 18 18 16 16 22 25 19 9 7 6 10 16 13 10 9
Height
5329 5324 5322 5319 5317 5316 5316 5317 5320 5324 5330 5337 5344 5353 5363 5373 5384 5393 5406 5417 5431 5440 5455 5464 5470 5482 5493 5500 5507 5515 5517 5523 5531 5532 5540 5544 5557 5561 5564 5573 5579 5585 5591 5597 5602 5605 5610 5622 5626 5629 5634 5640 5648 5649
5316 5314 5310 5306 5302 5299 5297 5297 5300 5304 5310 5319 5328 5338 5349 5360 5370 5380 5391 5404 5420 5429 5444 5452 5459 5474 5485 5493 5500 5503 5511 5519 5524 5527 5532 5539 5549 5556 5562 5567 5573 5580 5585 5590 5595 5600 5604 5614 5616 5619 5625 5632 5636 5639
5308 5304 5299 5292 5285 5280 5277 5275 5276 5280 5287 5296 5307 5319 5332 5345 5358 5369 5381 5397 5408 5418 5429 5440 5454 5471 5478 5485 5491 5497 5504 5511 5514 5519 5523 5532 5538 5550 5553 5563 5570 5575 5578 5581 5587 5595 5597 5602 5607 5611 5619 5623 5626 5627
5302 5296 5288 5279 5273 5264 5253 5244 5244 5255 5270 5283 5293 5303 5315 5331 5344 5357 5371 5387 5400 5412 5422 5435 5448 5460 5471 5477 5483 5489 5497 5503 5508 5512 5516 5521 5532 5542 5548 5555 5564 5572 5574 5577 5582 5587 5589 5592 5599 5604 5609 5612 5615 5617
5296 5290 5282 5275 5265 5252 5235 5219 5222 5238 5257 5274 5284 5296 5310 5324 5337 5352 5366 5381 5395 5410 5419 5434 5445 5455 5463 5469 5476 5484 5491 5496 5503 5507 5510 5517 5525 5535 5542 5549 5556 5566 5567 5569 5577 5579 5582 5587 5591 5595 5598 5600 5605 5609
5294 5287 5281 5274 5264 5253 5245 5238 5240 5249 5261 5273 5286 5299 5311 5322 5334 5345 5360 5375 5392 5405 5418 5428 5441 5448 5457 5465 5470 5477 5483 5489 5496 5501 5505 5513 5522 5526 5532 5541 5552 5557 5561 5561 5566 5570 5575 5581 5585 5587 5591 5593 5596 5599
5294 5287 5283 5278 5271 5263 5258 5257 5258 5263 5272 5283 5294 5303 5314 5324 5335 5348 5366 5383 5392 5404 5416 5428 5436 5443 5451 5458 5462 5469 5476 5483 5489 5494 5501 5504 5511 5519 5527 5531 5544 5551 5557 5557 5556 5561 5567 5573 5578 5581 5584 5586 5588 5590
5297 5292 5286 5282 5280 5276 5273 5272 5275 5280 5286 5294 5303 5313 5322 5331 5345 5357 5371 5383 5394 5406 5417 5425 5433 5440 5446 5452 5458 5465 5471 5476 5482 5486 5490 5495 5505 5511 5517 5528 5535 5542 5547 5550 5554 5557 5562 5566 5569 5572 5575 5576 5577 5579
5304 5300 5295 5292 5290 5288 5288 5289 5290 5294 5300 5306 5314 5322 5331 5342 5355 5364 5376 5388 5399 5411 5416 5423 5431 5438 5443 5449 5454 5459 5464 5468 5474 5476 5482 5492 5498 5501 5515 5521 5525 5533 5541 5545 5548 5551 5555 5560 5561 5563 5565 5566 5567 5568
5312 5310 5308 5306 5304 5302 5303 5305 5307 5310 5314 5320 5326 5332 5341 5353 5363 5374 5386 5394 5402 5408 5415 5421 5429 5435 5441 5445 5449 5453 5456 5462 5466 5472 5476 5485 5492 5498 5507 5512 5519 5529 5536 5539 5542 5547 5550 5551 5554 5556 5556 5557 5557 5558
5320 5320 5319 5319 5318 5317 5318 5319 5322 5325 5330 5335 5341 5348 5355 5364 5373 5381 5388 5395 5401 5407 5414 5421 5427 5432 5438 5441 5444 5449 5453 5456 5459 5467 5477 5482 5486 5491 5501 5508 5517 5523 5528 5532 5535 5539 5542 5543 5544 5545 5546 5547 5548 5549
5328 5328 5328 5329 5330 5331 5332 5334 5337 5341 5346 5351 5355 5361 5367 5374 5380 5386 5391 5398 5403 5409 5415 5422 5426 5430 5434 5439 5442 5448 5451 5452 5459 5467 5472 5475 5481 5488 5496 5504 5511 5515 5518 5522 5526 5529 5531 5533 5535 5536 5537 5538 5540 5540
5335 5337 5338 5338 5340 5342 5344 5347 5349 5353 5356 5361 5367 5371 5375 5382 5386 5391 5397 5404 5408 5412 5415 5420 5424 5428 5433 5438 5445 5450 5452 5458 5462 5467 5472 5474 5480 5486 5493 5499 5504 5509 5512 5516 5519 5522 5524 5525 5527 5529 5529 5530 5530 5530
5343 5344 5346 5347 5349 5351 5353 5355 5359 5363 5367 5370 5374 5378 5382 5387 5392 5396 5400 5404 5407 5409 5411 5417 5425 5429 5434 5440 5444 5449 5456 5458 5460 5463 5468 5470 5475 5482 5488 5493 5498 5504 5508 5510 5512 5514 5516 5517 5518 5520 5520 5520 5520 5520
5351 5352 5354 5356 5358 5360 5362 5364 5367 5370 5374 5378 5382 5386 5389 5392 5395 5397 5400 5405 5409 5413 5417 5422 5428 5433 5436 5438 5443 5448 5453 5456 5459 5461 5464 5467 5471 5477 5482 5488 5493 5497 5501 5503 5504 5506 5507 5508 5509 5510 5510 5510 5509 5509
5356 5358 5360 5363 5365 5367 5370 5372 5375 5378 5380 5384 5388 5391 5393 5395 5398 5403 5406 5409 5413 5417 5420 5424 5428 5431 5435 5438 5442 5447 5448 5452 5455 5458 5461 5464 5468 5473 5477 5481 5486 5490 5493 5494 5497 5498 5500 5501 5501 5500 5501 5501 5501 5501
5362 5363 5364 5367 5370 5373 5375 5377 5380 5383 5386 5389 5391 5394 5396 5399 5401 5405 5409 5414 5417 5421 5423 5425 5427 5431 5436 5439 5443 5445 5448 5452 5455 5457 5460 5464 5467 5471 5473 5476 5479 5482 5485 5488 5490 5491 5492 5492 5493 5493 5493 5493 5492 5491
5372 5373 5373 5375 5376 5379 5380 5382 5383 5385 5387 5390 5394 5396 5399 5402 5404 5407 5411 5415 5420 5423 5427 5428 5431 5433 5436 5440 5444 5448 5450 5453 5454 5457 5461 5463 5465 5468 5470 5472 5474 5476 5478 5480 5482 5483 5484 5485 5485 5484 5484 5482 5480 5479
5378 5379 5380 5381 5382 5384 5384 5386 5387 5388 5390 5392 5395 5398 5400 5403 5406 5410 5413 5417 5422 5426 5430 5431 5433 5434 5436 5440 5444 5447 5450 5453 5455 5457 5459 5460 5461 5462 5464 5466 5467 5469 5471 5473 5474 5475 5475 5475 5475 5474 5472 5471 5469 5467
5385 5385 5385 5385 5386 5387 5388 5389 5391 5393 5395 5398 5399 5400 5402 5404 5407 5412 5417 5421 5426 5429 5432 5433 5433 5436 5438 5442 5444 5446 5448 5450 5452 5453 5454 5455 5456 5458 5459 5461 5462 5463 5464 5465 5465 5465 5465 5465 5464 5463 5461 5460 5458 5455
5393 5393 5393 5394 5394 5395 5395 5395 5396 5397 5399 5401 5403 5406 5408 5409 5412 5416 5420 5424 5428 5430 5431 5432 5434 5436 5438 5440 5442 5443 5445 5446 5447 5449 5449 5449 5450 5452 5453 5454 5455 5456 5456 5456 5456 5456 5455 5454 5454 5452 5451 5449 5446 5443
5401 5401 5401 5401 5401 5402 5401 5402 5402 5404 5405 5406 5408 5409 5412 5415 5418 5421 5424 5427 5427 5429 5430 5432 5434 5435 5437 5438 5439 5439 5439 5439 5439 5442 5443 5443 5443 5444 5445 5446 5447 5447 5448 5447 5447 5446 5446 5445 5443 5441 5439 5435 5432 5428
5406 5407 5407 5407 5408 5408 5409 5409 5410 5411 5412 5413 5414 5415 5416 5418 5420 5423 5424 5425 5426 5428 5429 5430 5431 5431 5433 5435 5435 5435 5435 5436 5436 5437 5437 5438 5438 5439 5439 5439 5439 5439 5439 5438 5437 5436 5434 5432 5429 5427 5424 5420 5417 5413
5410 5411 5411 5412 5412 5412 5414 5414 5415 5415 5416 5417 5418 5419 5421 5422 5423 5423 5424 5425 5426 5426 5426 5426 5426 5426 5427 5428 5429 5430 5430 5430 5431 5431 5432 5432 5432 5432 5431 5431 5430 5430 5428 5427 5425 5423 5421 5418 5416 5413 5410 5406 5402 5397
5416 5415 5415 5414 5415 5416 5417 5417 5418 5419 5420 5420 5421 5421 5421 5422 5422 5422 5422 5423 5422 5422 5422 5422 5422 5422 5423 5423 5423 5422 5422 5422 5423 5423 5422 5422 5422 5421 5420 5420 5418 5417 5416 5414 5412 5410 5408 5405 5402 5399 5395 5392 5388 5384
5416 5415 5416 5416 5415 5416 5416 5416 5416 5416 5417 5417 5417 5418 5419 5419 5420 5419 5419 5418 5417 5416 5416 5415 5415 5414 5414 5414 5413 5413 5413 5412 5412 5412 5411 5411 5410 5409 5408 5407 5406 5405 5403 5401 5399 5397 5394 5391 5389 5387 5383 5379 5375 5370
5416 5415 5415 5415 5415 5414 5413 5413 5413 5413 5413 5413 5412 5412 5412 5411 5411 5410 5409 5408 5408 5407 5406 5406 5405 5404 5403 5403 5402 5401 5401 5400 5400 5399 5399 5398 5397 5396 5395 5394 5393 5392 5390 5388 5386 5384 5382 5380 5377 5373 5369 5365 5360 5356
5414 5413 5413 5413 5412 5411 5410 5410 5409 5408 5408 5407 5406 5405 5404 5403 5402 5401 5399 5398 5397 5395 5394 5393 5392 5391 5390 5389 5388 5388 5387 5387 5386 5386 5385 5385 5384 5383 5383 5382 5381 5379 5378 5376 5374 5372 5369 5367 5363 5359 5355 5351 5347 5342
5410 5410 5409 5408 5407 5406 5406 5405 5403 5402 5401 5399 5398 5396 5394 5392 5390 5387 5385 5383 5381 5379 5378 5377 5376 5375 5374 5374 5373 5373 5373 5373 5372 5372 5372 5372 5372 5371 5371 5370 5368 5367 5365 5364 5361 5359 5356 5353 5350 5346 5342 5338 5334 5331
5406 5405 5404 5403 5402 5400 5399 5397 5395 5393 5391 5389 5386 5383 5381 5378 5375 5371 5368 5366 5364 5363 5362 5361 5360 5360 5360 5360 5359 5360 5360 5360 5360 5360 5360 5360 5359 5359 5358 5357 5356 5354 5352 5350 5348 5346 5343 5340 5336 5333 5330 5328 5325 5322
5400 5399 5397 5396 5394 5392 5390 5388 5385 5383 5380 5377 5373 5370 5367 5364 5361 5359 5357 5355 5354 5352 5351 5350 5349 5349 5348 5348 5348 5348 5348 5348 5348 5348 5348 5348 5348 5347 5346 5345 5344 5343 5341 5338 5336 5333 5331 5328 5326 5323 5322 5320 5317 5314
5393 5392 5390 5388 5386 5384 5382 5380 5377 5374 5371 5367 5364 5361 5358 5355 5352 5349 5346 5344 5341 5340 5338 5338 5338 5337 5337 5337 5337 5337 5337 5338 5338 5338 5338 5338 5337 5337 5336 5334 5333 5331 5329 5327 5325 5323 5321 5320 5318 5317 5314 5312 5308 5305
5385 5384 5383 5381 5380 5378 5376 5374 5371 5368 5364 5360 5357 5354 5351 5347 5343 5340 5337 5335 5333 5331 5330 5329 5329 5329 5329 5329 5329 5329 5329 5329 5329 5329 5328 5328 5327 5326 5325 5324 5323 5321 5320 5318 5317 5316 5315 5313 5311 5309 5306 5303 5300 5297